Regional Weather Roundup
Issued by NWS State College, PA

Home | Current Version | Previous Version | Graphics & Text | Print | Product List | Glossary On
Versions: 1 2 3 4 5 6 7 8 9 10 11 12 13 14 15 16 17 18 19 20 21 22 23 24 25 26 27 28 29 30 31 32 33 34 35 36 37 38 39 40 41 42 43 44 45 46 47 48 49 50
491
ASUS41 KCTP 261903
RWRCTP

REGIONAL WEATHER ROUNDUP
NATIONAL WEATHER SERVICE STATE COLLEGE PA
200 PM EST SUN FEB 26 2017

Note: "fair" indicates few or no clouds below 12,000 feet with no
significant weather and/or obstructions to visibility.

* = STATION THAT DOES NOT REPORT PRECIPITATION /E.G. RAIN...SNOW...ETC/
    THUNDER OR FOG.

PAZ002>004-007>009-013>016-020>023-029>032-262000-
WESTERN PENNSYLVANIA

CITY           SKY/WX    TMP DP  RH WIND       PRES   REMARKS
ERIE           PTSUNNY   32  19  58 W13G23    30.12R
MEADVILLE      PTSUNNY   28  17  63 W10       30.09R
FRANKLIN*      SUNNY     32  16  51 SW14      30.10F
NEW CASTLE     FAIR      34  17  50 SW12      30.13F
BEAVER COUNTY  SUNNY     36  16  44 W9        30.12F
BUTLER*        SUNNY     36  16  44 SW12      30.13F
PITTSBURGH INT MOSUNNY   35  17  47 W12       30.13F
PITTSBURGH     MOSUNNY   36  17  46 SW13      30.13S
INDIANA*       CLOUDY    32  18  55 W15       30.14S
LATROBE        CLOUDY    36  19  51 SW12      30.14S
WASHINGTON CO* SUNNY     37  16  41 W10G18    30.15F
$$

PAZ004>006-010>012-017>019-024>028-033>037-041-042-045-046-049>053-262000-
CENTRAL PENNSYLVANIA

CITY           SKY/WX    TMP DP  RH WIND       PRES   REMARKS
BRADFORD       CLOUDY    25  14  63 W12G21    30.03R WCI  14
DUBOIS         CLOUDY    28  14  55 W16G26    30.07R
CLEARFIELD       N/A    N/A N/A N/A MISG      30.09S
JOHNSTOWN      CLOUDY    27  17  66 W14G24    30.05R
ALTOONA        CLOUDY    33  19  56 W17       30.10R
STATE COLLEGE  NOT AVBL
WILLIAMSPORT   PTSUNNY   38  15  39 W12       30.07F
SELINSGROVE    PTSUNNY   37  17  44 NW16G26   30.11S
FT INDIANTOWN  MOSUNNY   37  15  39 NW10G16   30.08F
CAPITAL CITY   MOSUNNY   42  16  34 W14       30.11S
HARRISBURG     PTSUNNY   41  20  43 NW14      30.10S
YORK           MOSUNNY   40  19  43 W15G22    30.10F
$$

PAZ038>040-043-044-047-048-054-055-060>062-067>071-262000-
EASTERN PENNSYLVANIA

CITY           SKY/WX    TMP DP  RH WIND       PRES   REMARKS
SCRANTON       CLOUDY    35  15  44 NW14      30.02S
MOUNT POCONO   PTSUNNY   31  15  52 NW12G21   29.96S
ALLENTOWN      CLOUDY    39  18  42 W13G22    30.07S
QUAKERTOWN*    PTCLDY    36  18  48 NW8G17    30.08R
READING        MOSUNNY   39  18  42 NW13G21   30.08S
LANCASTER      MOSUNNY   40  18  41 NW14      30.09S
COATESVILLE    PTCLDY    39  16  38 W17       30.09S
POTTSTOWN      PTSUNNY   40  16  37 W14G20    30.09S
BLUE BELL      PTSUNNY   37  19  48 NW12G17   30.07S
DOYLESTOWN     PTSUNNY   40  20  44 W13G21    30.07R
WILLOW GROVE   NOT AVBL
NORTH PHILA    MOSUNNY   43  18  36 NW16G25   30.09S
PHILADELPHIA   MOSUNNY   43  15  32 W17G29    30.10S
$$




USA.gov is the U.S. government's official web portal to all federal, state and local government web resources and services.